Location: Darmstadt
(49.8706°N, 8.6494°E)
Time: 07:33:16
(UTC+01:00)

CZ-4 R/B - Pass Details

Date: 31 October 2020
Orbit: 579 x 590 km, 97.8° (Epoch: 03 December)

Event Time Altitude Azimuth Distance (km) Brightness Sun altitude
Rises 18:29:00 0° 161° (SSE) 2,811 7.8 -14.2°
Reaches altitude 10° 18:31:09 10° 160° (SSE) 1,915 6.9 -14.5°
Maximum altitude 18:35:19 79° 74° (ENE) 609 4.3 -15.2°
Drops below altitude 10° 18:39:30 10° 349° (NNW) 1,931 7.2 -15.9°
Sets 18:41:40 0° 348° (NNW) 2,836 8.1 -16.2°
